Seeley, CA

12:31 PM PST on February 19, 2017 (GMT -0800)
El Centro Naval Air Facility

Weather History for KNJK - September, 2013

Change the Weather History Date:

Monday, September 9, 2013

  Actual Average Record
Temperature  
Mean Temperature 87 °F -  
Max Temperature 99 °F 102 °F 107 °F (1996)
Min Temperature 75 °F 76 °F 69 °F (2006)
Cooling Degree Days 22    
Growing Degree Days 37 (Base 50)    
Moisture  
Dew Point 65 °F    
Average Humidity 54    
Maximum Humidity 84    
Minimum Humidity 26    
Precipitation  
Precipitation 0.00 in - - ()
Sea Level Pressure  
Sea Level Pressure 29.70 in    
Wind  
Wind Speed 8 mph (East)    
Max Wind Speed 20 mph    
Max Gust Speed 28 mph    
Visibility 9 miles    
Events Rain , Thunderstorm    
Averages and records for this station are not official NWS values.
T = Trace of Precipitation, MM = Missing Value Source: NWS Daily Summary

Daily Weather History Graph

Daily Weather History Graph

Search for Another Location

Airport or City:

Trip Planner

Search our weather history database for the weather conditions in past years. The results will help you decide how hot, cold, wet, or windy it might be!

Date:

Astronomy

Sep. 09, 2013 Rise Set
Actual Time 6:22 AM PDT 6:56 PM PDT
Civil Twilight 5:57 AM PDT 7:21 PM PDT
Nautical Twilight 5:28 AM PDT 7:50 PM PDT
Astronomical Twilight 4:58 AM PDT 8:20 PM PDT
Moon 10:32 AM PDT (9/9) 9:33 PM PDT (9/9)
Length of Visible Light 13h 23m
Length of Day
12h 33m
Waxing Crescent, 20% of the Moon is Illuminated
Sep 9
Waxing Crescent
Sep 12
First Quarter
Sep 19
Full
Sep 26
Last Quarter
Oct 4
New

Hourly Weather History & Observations

Time (PDT) Temp. Heat Index Dew Point Humidity Pressure Visibility Wind Dir Wind Speed Gust Speed Precip Events Conditions
12:56 AM 82.0 °F 84.1 °F 66.0 °F 58% 29.73 in 10.0 mi SSE 5.8 mph - N/A   Clear
1:56 AM 80.1 °F 82.1 °F 66.0 °F 62% 29.74 in 10.0 mi North 3.5 mph - N/A   Clear
2:56 AM 81.0 °F 83.3 °F 66.9 °F 62% 29.77 in 10.0 mi North 17.3 mph - N/A   Mostly Cloudy
3:56 AM 79.0 °F - 64.9 °F 62% 29.75 in 8.0 mi NE 15.0 mph - N/A Rain Rain
4:14 AM 79.0 °F - 64.0 °F 60% 29.72 in 1.8 mi SSW 5.8 mph - N/A Rain Heavy Rain
4:27 AM 81.0 °F 82.2 °F 63.0 °F 54% 29.69 in 3.0 mi SSW 19.6 mph 25.3 mph N/A Rain Rain
4:56 AM 79.0 °F - 64.0 °F 60% 29.70 in 10.0 mi South 11.5 mph - N/A Rain Light Rain
5:56 AM 75.9 °F - 70.0 °F 82% 29.73 in 10.0 mi West 8.1 mph - 0.00 in   Mostly Cloudy
6:56 AM 75.9 °F - 69.1 °F 79% 29.73 in 10.0 mi East 6.9 mph - N/A   Scattered Clouds
7:56 AM 78.1 °F - 73.0 °F 84% 29.75 in 10.0 mi SW 3.5 mph - N/A   Mostly Cloudy
8:56 AM 81.0 °F 84.1 °F 69.1 °F 67% 29.76 in 10.0 mi ESE 3.5 mph - N/A   Scattered Clouds
9:56 AM 84.9 °F 87.6 °F 66.9 °F 55% 29.77 in 10.0 mi Calm Calm - N/A   Scattered Clouds
10:56 AM 88.0 °F 90.3 °F 66.0 °F 48% 29.76 in 10.0 mi Variable 3.5 mph - N/A   Partly Cloudy
11:56 AM 91.0 °F 95.6 °F 69.1 °F 48% 29.74 in 10.0 mi ENE 4.6 mph - N/A   Partly Cloudy
12:56 PM 93.9 °F 95.6 °F 64.0 °F 37% 29.71 in 10.0 mi Calm Calm - N/A   Partly Cloudy
1:56 PM 96.1 °F 96.4 °F 61.0 °F 31% 29.68 in 10.0 mi ESE 4.6 mph - N/A   Scattered Clouds
2:56 PM 97.0 °F 96.5 °F 59.0 °F 28% 29.65 in 10.0 mi SSW 4.6 mph - N/A   Scattered Clouds
3:56 PM 98.1 °F 97.2 °F 57.9 °F 26% 29.62 in 10.0 mi WSW 5.8 mph - N/A   Scattered Clouds
4:56 PM 99.0 °F 99.5 °F 60.1 °F 28% 29.62 in 10.0 mi ENE 5.8 mph - N/A   Scattered Clouds
5:56 PM 98.1 °F 98.1 °F 60.1 °F 28% 29.63 in 10.0 mi East 3.5 mph - N/A   Mostly Cloudy
6:41 PM 96.1 °F 97.3 °F 63.0 °F 33% 29.59 in 10.0 mi ENE 12.7 mph 18.4 mph N/A Thunderstorm Thunderstorm
6:56 PM 93.0 °F 93.8 °F 62.1 °F 36% 29.64 in 10.0 mi ENE 17.3 mph 21.9 mph N/A Thunderstorm Thunderstorm
7:29 PM 82.9 °F 84.4 °F 64.0 °F 53% 29.61 in 5.0 mi East 10.4 mph - 0.00 in Rain , Thunderstorm Light Thunderstorms and Rain
7:51 PM 84.2 °F 85.0 °F 62.6 °F 48% 29.62 in 10.0 mi NE 11.5 mph - 0.00 in Rain Light Rain
7:56 PM 82.9 °F 84.4 °F 64.0 °F 53% 29.66 in 10.0 mi NE 11.5 mph - 0.00 in Rain Light Rain
8:12 PM 82.9 °F 84.6 °F 64.9 °F 54% 29.63 in 10.0 mi NE 9.2 mph - 0.00 in   Mostly Cloudy
8:56 PM 81.0 °F 84.1 °F 69.1 °F 67% 29.72 in 10.0 mi ESE 17.3 mph - 0.00 in   Mostly Cloudy
9:56 PM 77.0 °F - 68.0 °F 74% 29.75 in 10.0 mi ESE 18.4 mph 27.6 mph N/A   Mostly Cloudy
10:56 PM 75.0 °F - 68.0 °F 79% 29.76 in 10.0 mi East 9.2 mph - N/A   Mostly Cloudy
11:56 PM 75.0 °F - 68.0 °F 79% 29.78 in 10.0 mi NNE 6.9 mph - N/A   Clear